453  
ASUS44 KEWX 061511  
RWRTX  
SOUTH TEXAS REGIONAL WEATHER ROUNDUP  
NATIONAL WEATHER SERVICE AUSTIN/SAN ANTONIO TX  
900 AM CST SAT FEB 06 2016  
 
NOTE: "FAIR" INDICATED FEW OR NO CLOUDS BELOW 12,000 FEET WITH NO  
SIGNIFICANT WEATHER AND/OR S TO VISIBILITY
.  
 
* - THESE STATIONS ARE NOT NWS OR FAA STATIONS...AND ARE NOT SUBJECT  
TO NWS AND FAA QUALITY CONTROL.
 
 
TXZ171-172-183>190-061600-  
TEXAS HILL COUNTRY AND EDWARDS PLATEAU  
 
CITY SKY/WX TMP DP RH WIND PRES REMARKS
 
JUNCTION SUNNY 38 22 52 CALM 30.43R  
*LLANO SUNNY 45 25 45 NW15 30.43R WCI 38  
BURNET SUNNY 44 26 49 NW15G25 30.38R WCI 37  
*HORSESHOE BAY SUNNY 45 28 50 NW10G20 30.38R WCI 39  
*KERRVILLE SUNNY 41 26 56 NW15G21 30.39S WCI 33  
*FREDERICKSBRG SUNNY 43 22 44 NW16 30.39R WCI 35  
*ROCKSPRINGS SUNNY 39 21 48 NW13 30.44R WCI 32  
*BOERNE STAGE SUNNY 43 27 52 NW12G21 30.40R WCI 37  
*CASTROVILLE SUNNY 46 28 48 NW8 30.44R WCI 42  
HONDO SUNNY 46 27 47 NW12 30.44R WCI 41  
*UVALDE SUNNY 44 28 51 N7 30.45R WCI 40  
DEL RIO SUNNY 45 24 43 NW9 30.48R WCI 40  
LAUGHLIN AFB SUNNY 43 24 47 NW8 30.48R WCI 38  
CARRIZO SPRGS SUNNY 45 27 49 NW10 30.47R WCI 39  
*EAGLE PASS SUNNY 43 23 45 NW10 30.49R WCI 37  

 
 
TXZ173-191>194-202-209-217>225-228-061600-  
CENTRAL AND SOUTH CENTRAL TEXAS  
 
CITY SKY/WX TMP DP RH WIND PRES REMARKS
 
GEORGETOWN SUNNY 45 28 53 W10G21 30.34R WCI 39  
AUSTIN/BERGSTM SUNNY 49 27 42 NW16G22 30.36R WCI 43  
AUSTIN/MABRY SUNNY 48 27 44 NW8G25 30.37R WCI 44  
*AUSTIN/EXEC SUNNY 46 30 53 NW13 30.36R WCI 41  
*LAGO VISTA SUNNY 44 28 54 W10G20 30.35R WCI 39  
SAN MARCOS SUNNY 48 28 46 NW15G26 30.38R WCI 42  
NEW BRAUNFELS SUNNY 49 29 46 NW15 30.37R WCI 43  
RANDOLPH AFB SUNNY 48 27 43 NW15 30.38R WCI 42  
PT SAN ANTONIO SUNNY 48 27 43 NW13 30.39R WCI 42  
SAN ANTONIO MOSUNNY 48 27 44 NW14G23 30.40R WCI 42  
STINSON FIELD MOSUNNY 49 26 41 NW12G18 30.39R WCI 44  
*PLEASANTON MOSUNNY 47 32 57 NW10 30.42R WCI 42  
*LA GRANGE SUNNY 50 31 49 NW17G23 30.32R WCI 44  
*GIDDINGS SUNNY 46 33 61 NW13G18 30.37R WCI 40  
*GONZALES SUNNY 48 35 60 NW12G20 30.36R WCI 44  

 
 
TXZ163>164-176>182-195>201-210>213-226-227-235-061600-  
SOUTHEAST TEXAS  
 
CITY SKY/WX TMP DP RH WIND PRES REMARKS
 
COLLEGE STN SUNNY 45 34 65 W13 30.31R WCI 39  
*BRYAN SUNNY 44 34 67 W9G16 30.32R WCI 39  
*CALDWELL SUNNY 45 32 61 W14 30.35R WCI 38  
*CROCKETT SUNNY 45 41 87 CALM 30.32R  
*BRENHAM SUNNY 47 37 66 NW13G18 30.33R WCI 42  
HUNTSVILLE SUNNY 46 39 76 W9 30.28S WCI 41  
CONROE SUNNY 45 44 97 CALM 30.31R FOG  
HOUSTON BUSH MOSUNNY 48 46 93 CALM 30.31R  
HOUSTON HOBBY MOSUNNY 49 45 86 SW3 30.31R  
*HOUSTON SW AP SUNNY 50 44 81 CALM 30.32R  
PEARLAND SUNNY 51 46 83 CALM 30.33S  
HOUSTON HOOKS SUNNY 48 45 89 W6 30.31R WCI 45  
ELLINGTON FLD NOT AVBL  
SUGAR LAND SUNNY 49 45 86 W8 30.32R WCI 45  
*HOUSTON EXEC SUNNY 48 41 76 W13 30.34R WCI 43  
*CLEVELAND MUN PTSUNNY 46 46 100 CALM 30.32R  
*WHARTON SUNNY 49 47 91 W13 30.35R WCI 44  
*COLUMBUS FAIR 47 38 70 NW9 30.33R WCI 43  
*EAGLE LAKE SUNNY 48 39 71 NW8 30.33R WCI 45  

 
 
TXZ214>216-236>238-061600-  
THE UPPER TEXAS COAST  
 
CITY SKY/WX TMP DP RH WIND PRES REMARKS
 
*ORANGE CLOUDY 43 40 87 NE6 30.35F WCI 40  
PORT ARTHUR PTSUNNY 45 43 93 NE10 30.32F WCI 40  
GALVESTON MOSUNNY 51 50 96 CALM 30.32S  
ANGLETON SUNNY 51 47 86 SW5 30.32S  
*BAY CITY SUNNY 53 48 84 W7 30.33S  
PALACIOS SUNNY 52 48 86 W10 30.35S  

 
 
TXZ229>234-239>247-061600-  
TEXAS COASTAL BEND AND RIO GRANDE PLAINS  
 
CITY SKY/WX TMP DP RH WIND PRES REMARKS
 
VICTORIA SUNNY 52 40 63 W14 30.37R  
*BEEVILLE SUNNY 51 43 73 NW10G17 30.40R  
ROCKPORT SUNNY 55 46 71 NW10 30.38R  
*PORT ARANSAS SUNNY 51 47 86 NW9 30.38R  
*PORT LAVACA SUNNY 50 45 82 W10 30.36R WCI 46  
*INGLESIDE SUNNY 51 45 79 NW12 30.39R  
CORPUS CHRISTI SUNNY 54 45 71 NW16 30.40R  
CORPUS NAS SUNNY 55 49 80 NW13 30.39R  
*ROBSTOWN SUNNY 53 46 77 NW15 30.41R  
ALICE MOSUNNY 52 44 74 NW13 30.41R  
KINGSVILLE NAS MOSUNNY 53 48 83 NW13 30.41R  
COTULLA SUNNY 43 32 65 NW9 30.45R WCI 38  
*FAITH RANCH SUNNY 48 23 37 NW15G21 30.48R WCI 42  
LAREDO SUNNY 48 31 51 NW14 30.47R WCI 42  

 
 
TXZ248>255-061600-  
DEEP SOUTH TEXAS  
 
CITY SKY/WX TMP DP RH WIND PRES REMARKS
 
BROWNSVILLE SUNNY 58 50 75 NW10 30.40R  
PORT ISABEL SUNNY 58 50 75 NW10 30.39R  
*SOUTH PADRE N/A 59 54 82 NE10G16 30.39R  
HARLINGEN SUNNY 56 48 74 W10 30.40R  
*HEBBRONVILLE NOT AVBL  
MCALLEN SUNNY 54 46 74 W7 30.44R  
*WESLACO SUNNY 55 48 79 NW10 30.42R  
FALFURRIAS MOSUNNY 55 43 64 NW13G22 30.42R  
EDINBURG SUNNY 57 49 73 NW13 30.43R  
*ZAPATA SUNNY 49 36 60 NW13G18 30.46R WCI 44  

 
 
TXZ213>215-236>238-242>244-246-247-251-254-255-061600-  
CMAN STATIONS  
 
STATION/POSITION TIME TEMP WIND PRES WAVE
 
AIR SEA DIR/SP/G HT/PER  
(UTC) (F) (DEG/KT/KT) (MB) (FT/S)  
SABINE PASS 1400 48 57 320/ 16/ 22 1028.6  
SEA RIM ST PARK 1500 45 60/ 10/ 12 1027.1  
NORTH JETTY/GLS 1400 49 56 50/ 8/ 10 N/A  
EAGLE POINT 1400 49 50 30/ 3/ 5 1026.5  
MORGANS POINT 1400 47 53 100/ 2/ 3 1026.2  
MISSION/ARANSAS 1400 49 1029.0  
PORT O'CONNOR 1400 280/ 6/ 9 N/A  
PORT ARANSAS 1500 52 59 310/ 7/ 9 1029.4  
MALAQUITE BEACH 1400 50 59 310/ 9/ 13 1028.5  
BAFFIN BAY 1400 52 57 280/ 10/ 11 1028.4  
PORT ISABEL 1400 55 60 320/ 7/ 9 1028.2  

 
 
GMZ080-GMZ150>470-061600-  
OFFSHORE BUOY REPORTS  
 
STATION/POSITION TIME TEMP WIND PRES WAVE
 
AIR SEA DIR/SP/G HT/PER  
(UTC) (F) (DEG/KT/KT) (MB) (FT/S)  
20 E GALVESTON 1450 51 58 350/ 8/ 10 1026.5 2/ 6  
90 E PT ARANSAS 1450 59 69 340/ 23/ 27 1026.6 4/ 6  
35 NE PT MANSFLD 1450 63 68 290/ 17/ 23 1027.6 3/ 6  
200 E PT ISABEL 1450 N/A 4/ 7  

 
 
 
CLICK HERE TO GO TO PREVIOUS BULLETINS.

The Nexlab TX Page Main Text Page